Location: Unspecified
(39.0670°S, 0.0000°E)
Time: 22:48:26
(UTC+00:00)

BEESAT 2 - Visible Passes

Search period start: 15 September 2019 00:00
Search period end: 25 September 2019 00:00
Orbit: 498 x 532 km, 64.9° (Epoch: 14 September)

Date Brightness Start Highest point End Pass type
(mag) Time Alt. Az. Time Alt. Az. Time Alt. Az.
16 Sep ? 05:32:05 10° S 05:35:20 25° SE 05:38:34 10° ENE visible
17 Sep ? 05:16:03 10° S 05:19:19 25° SE 05:22:33 10° ENE visible
18 Sep ? 05:00:00 10° S 05:03:17 26° SE 05:06:32 10° ENE visible
19 Sep ? 04:43:56 10° S 04:47:14 26° SE 04:50:31 10° ENE visible
20 Sep ? 04:27:53 10° S 04:31:13 26° SE 04:34:29 10° ENE visible
20 Sep ? 19:53:32 10° NNW 19:53:43 11° NNW 19:53:43 11° NNW visible
21 Sep ? 04:11:50 10° S 04:15:10 27° SE 04:18:28 10° ENE visible
21 Sep ? 19:37:28 10° NNW 19:40:59 63° NNE 19:40:59 63° NNE visible
22 Sep ? 03:55:47 10° S 03:59:08 27° SE 04:02:27 10° ENE visible
22 Sep ? 19:21:26 10° NNW 19:25:20 71° ENE 19:28:15 17° SE visible
22 Sep ? 21:01:45 10° WSW 21:03:24 12° SW 21:03:24 12° SW visible
23 Sep ? 03:39:43 10° S 03:43:06 27° SE 03:46:24 10° ENE visible
23 Sep ? 05:17:30 10° WSW 05:20:34 23° WNW 05:23:36 10° NNW visible
23 Sep ? 19:05:23 10° NNW 19:09:18 72° ENE 19:13:13 10° SE visible
23 Sep ? 20:45:46 10° WSW 20:47:22 12° SW 20:48:58 10° SSW visible
24 Sep ? 03:24:49 17° S 03:27:02 28° SE 03:30:23 10° ENE visible
24 Sep ? 05:01:28 10° WSW 05:04:31 22° WNW 05:07:33 10° NNW visible
24 Sep ? 18:49:20 10° NNW 18:53:14 73° ENE 18:57:10 10° SE visible
24 Sep ? 20:29:46 10° WSW 20:31:20 12° SW 20:32:53 10° SSW visible
